This is the latest recevied weather packets stored in our database for station/object DG0LHZ-10. If no packets are shown the sender has not sent any weather packets the latest 10 day(s).
| Time | Temp. | Humidity | Pressure | Rain* | Wind** | Luminosity | Snow |
|---|---|---|---|---|---|---|---|
| 1788036187 | 23.33° C | 40% | 1014.6 hPa | - | - | - | - |
| 1788035287 | 23.33° C | 40% | 1014.5 hPa | - | - | - | - |
| 1788034387 | 23.33° C | 39% | 1014.7 hPa | - | - | - | - |
| 1788033487 | 23.89° C | 38% | 1014.8 hPa | - | - | - | - |
| 1788032587 | 24.44° C | 38% | 1014.7 hPa | - | - | - | - |
| 1788031687 | 24.44° C | 38% | 1014.7 hPa | - | - | - | - |
| 1788030787 | 25° C | 37% | 1014.7 hPa | - | - | - | - |
| 1788029887 | 25.56° C | 37% | 1014.6 hPa | - | - | - | - |
| 1788028986 | 26.11° C | 37% | 1014.5 hPa | - | - | - | - |
| 1788028086 | 26.11° C | 36% | 1014.5 hPa | - | - | - | - |
| 1788027186 | 26.67° C | 35% | 1014.5 hPa | - | - | - | - |
| 1788026286 | 27.22° C | 35% | 1014.4 hPa | - | - | - | - |
| 1788025386 | 27.78° C | 35% | 1014.4 hPa | - | - | - | - |
| 1788024485 | 28.33° C | 35% | 1014.4 hPa | - | - | - | - |
| 1788023585 | 28.89° C | 34% | 1014.5 hPa | - | - | - | - |
| 1788022685 | 28.89° C | 34% | 1014.5 hPa | - | - | - | - |
| 1788021785 | 29.44° C | 33% | 1014.7 hPa | - | - | - | - |
| 1788020885 | 30° C | 34% | 1014.8 hPa | - | - | - | - |
| 1788019985 | 30.56° C | 33% | 1014.9 hPa | - | - | - | - |
| 1788019085 | 30.56° C | 33% | 1014.9 hPa | - | - | - | - |
| 1788018185 | 31.11° C | 34% | 1014.9 hPa | - | - | - | - |
| 1788017285 | 31.11° C | 34% | 1015 hPa | - | - | - | - |
| 1788016384 | 31.11° C | 35% | 1015 hPa | - | - | - | - |
| 1788015484 | 31.67° C | 35% | 1015.1 hPa | - | - | - | - |
| 1788014584 | 31.11° C | 35% | 1015.1 hPa | - | - | - | - |
* Rain since midnight (hover to see other rain measurements)
** Current wind speed in m/s (hover to see current wind gust speed)